Hourly Weather Roundup
Issued by NWS Central Illinois

Home | Current Version | Previous Version | Text Only | Print | Product List | Glossary On
Versions: 1 2 3 4 5 6 7 8 9 10 11 12 13 14 15 16 17 18 19 20 21 22 23 24 25 26 27 28 29 30 31 32 33 34 35 36 37 38 39 40 41 42 43 44 45 46 47 48 49 50
000
NZUS43 KILX 221010
HWRILX

AREA WEATHER ROUNDUP
NATIONAL WEATHER SERVICE, LINCOLN IL
500 AM CDT FRI AUG 22 2014


CITY           SKY/WX    TMP DP  RH WIND       PRES   REMARKS
BLOOMINGTON    MOCLDY    76  72  87 NE12      29.95R
CHAMPAIGN      CLOUDY    76  74  93 SW8       29.92S
DECATUR        PTCLDY    78  73  84 SW13      29.92S HX  81
FLORA          CLEAR     76  73  90 SW6       29.97R
GALESBURG      TSTM      75  73  96 S6        29.91F
JACKSONVILLE   CLEAR     78  72  82 SW8       29.93S HX  81
LACON          TSTM      74  72  92 W10G16    29.95R
LAWRENCEVILLE  CLEAR     76  73  91 SW6       29.96R
LITCHFIELD     CLEAR     73  71  95 S6        29.95S
$$


CITY           SKY/WX    TMP DP  RH WIND       PRES   REMARKS
LINCOLN        MOCLDY    79  73  81 SW3       29.89R HX  83
MACOMB         MOCLDY    77  73  89 N6        29.95R
MATTOON        MOCLDY    77  72  84 SW10      29.93S
MT CARMEL AP   CLEAR     77  73  88 SW3       29.97R
OLNEY-NOBLE AP CLEAR     73  72  94 CALM      29.97R
PARIS          CLOUDY    76  74  93 SW7       29.93S
PEORIA         TSTM      77  73  87 N9G23     29.96R FOG
PONTIAC        NOT AVBL
RANTOUL        CLOUDY    79  73  82 NW13G18   29.95R HX  83
ROBINSON       PTCLDY    78  74  89 SW10      29.95S HX  80
SPRINGFIELD    CLEAR     79  72  79 SW8       29.92R HX  82
TAYLORVILLE    CLEAR     77  72  83 SW8       29.94R
$$

...REGIONAL REPORTS...


CITY           SKY/WX    TMP DP  RH WIND       PRES   REMARKS
CHICAGO O`HARE MOCLDY    73  69  87 SW10      29.91R
KANKAKEE       TSTM      73  71  96 CALM      29.95S
MOLINE         CLOUDY    76  72  87 W3        29.88R
MOUNT VERNON   CLEAR     73  68  83 CALM      29.98R
PITTSFIELD     CLEAR     79  70  74 SW6       29.93S HX  81
QUINCY         CLEAR     78  71  79 SW8       29.91R HX  80
ROCKFORD       PTCLDY    73  71  93 E5        29.91F FOG
$$


CITY           SKY/WX    TMP DP  RH WIND       PRES   REMARKS
BURLINGTON     CLOUDY    76  75  97 S6        29.88S
CEDAR RAPIDS   CLOUDY    73  73 100 E5        29.85F FOG
DES MOINES     TSTM      74  70  87 CALM      29.82F
KIRKSVILLE     CLOUDY    79  71  76 W9        29.95R HX  82
OTTUMWA        LGT RAIN  77  71  82 W7        29.91R
ST LOUIS       NOT AVBL
$$


CITY           SKY/WX    TMP DP  RH WIND       PRES   REMARKS
TERRE HAUTE    MOCLDY    76  72  87 SW8       29.94S
EVANSVILLE     CLEAR     76  72  87 SW5       29.98R
INDIANAPOLIS   MOCLDY    75  72  90 SW10      29.93F
LAFAYETTE      TSTM      75  74  96 N10       29.92R
MADISON        CLOUDY    73  72  96 S5        29.91R FOG
MILWAUKEE      FOG       71  69  93 SW5       29.94R VSB 1/4
$$




USA.gov is the U.S. government's official web portal to all federal, state and local government web resources and services.